This is the latest recevied weather packets stored in our database for station/object K5NWZ. If no packets are shown the sender has not sent any weather packets the latest 10 day(s).
| Time | Temp. | Humidity | Pressure | Rain* | Wind** | Luminosity | Snow |
|---|---|---|---|---|---|---|---|
| 1777914894 | 21.67° C | 26% | 1017 hPa | 0 mm | - | 275 W/m² | - |
| 1777914591 | 21.67° C | 25% | 1017 hPa | 0 mm | - | 287 W/m² | - |
| 1777914287 | 21.67° C | 25% | 1017 hPa | 0 mm | - | 279 W/m² | - |
| 1777913985 | 21.11° C | 25% | 1017 hPa | 0 mm | - | 270 W/m² | - |
| 1777913681 | 20.56° C | 25% | 1017.1 hPa | 0 mm | - | 273 W/m² | - |
| 1777913378 | 20.56° C | 25% | 1017.3 hPa | 0 mm | - | 290 W/m² | - |
| 1777913074 | 20.56° C | 26% | 1016.9 hPa | 0 mm | - | 353 W/m² | - |
| 1777912771 | 21.11° C | 25% | 1017 hPa | 0 mm | - | 322 W/m² | - |
| 1777912466 | 20.56° C | 24% | 1017 hPa | 0 mm | - | 500 W/m² | - |
| 1777912163 | 20.56° C | 26% | 1017.3 hPa | 0 mm | - | 324 W/m² | - |
| 1777911859 | 20.56° C | 25% | 1017.1 hPa | 0 mm | - | 375 W/m² | - |
| 1777911556 | 20° C | 25% | 1017 hPa | 0 mm | - | 273 W/m² | - |
| 1777911252 | 20° C | 26% | 1017.3 hPa | 0 mm | - | 261 W/m² | - |
| 1777910949 | 20° C | 26% | 1017.3 hPa | 0 mm | - | 253 W/m² | - |
| 1777910647 | 19.44° C | 27% | 1017.1 hPa | 0 mm | - | 249 W/m² | - |
| 1777910343 | 19.44° C | 28% | 1017.3 hPa | 0 mm | - | 236 W/m² | - |
| 1777910040 | 19.44° C | 27% | 1017.5 hPa | 0 mm | - | 233 W/m² | - |
| 1777909737 | 18.89° C | 28% | 1017.4 hPa | 0 mm | - | 238 W/m² | - |
| 1777909434 | 18.89° C | 26% | 1017.5 hPa | 0 mm | - | 230 W/m² | - |
| 1777909133 | 18.33° C | 31% | 1017.4 hPa | 0 mm | - | 224 W/m² | - |
| 1777908830 | 17.78° C | 31% | 1017.5 hPa | 0 mm | - | 229 W/m² | - |
| 1777908526 | 17.78° C | 31% | 1017.6 hPa | 0 mm | - | 219 W/m² | - |
| 1777908224 | 17.78° C | 31% | 1017.6 hPa | 0 mm | - | 214 W/m² | - |
| 1777907920 | 16.67° C | 33% | 1017.7 hPa | 0 mm | - | 222 W/m² | - |
| 1777907615 | 16.11° C | 35% | 1017.7 hPa | 0 mm | - | 216 W/m² | - |
* Rain latest hour (hover to see other rain measurements)
** Current wind speed in m/s (hover to see current wind gust speed)